GFSNGP_sfc_dewp_132.txt.gz
Dewpoint
21 21 22 23 22 22 22 25 26 25 22 22 24 28 33 35 35 33 30 28 28 26 27 25 25 21 20 22 23 23 23 25 27 27 26 27 27 27 28 28 27 27 27 27
22 21 21 21 20 21 21 23 23 23 24 24 28 32 35 35 32 30 28 27 25 25 25 25 21 20 21 24 25 25 25 26 27 27 27 27 27 27 28 27 27 28 27 26
24 21 25 22 21 20 21 20 23 29 28 27 30 30 31 32 30 30 28 26 26 27 28 26 26 24 24 25 25 25 25 25 25 26 25 26 26 26 27 28 28 26 27 28
24 22 21 18 22 24 24 25 26 27 28 29 28 31 31 32 32 30 29 29 29 29 28 28 28 26 26 25 25 25 26 25 25 24 24 25 24 25 26 29 27 26 25 26
23 17 17 18 28 32 30 23 25 27 28 30 29 30 30 30 31 31 32 32 30 30 30 29 28 29 26 25 24 24 24 25 25 24 23 24 23 24 26 26 26 24 24 23
22 17 15 28 26 26 25 23 25 27 30 30 30 30 35 31 31 30 29 29 29 29 29 29 29 29 26 25 23 23 23 24 25 24 24 23 24 24 26 26 25 25 23 23
26 24 20 21 28 26 24 27 29 30 31 31 30 31 33 32 30 29 28 28 29 29 28 28 30 28 25 24 23 24 24 24 24 25 24 25 25 26 25 25 25 23 23 23
28 26 24 29 27 22 30 31 31 32 33 32 31 29 28 28 27 27 27 27 26 27 28 29 29 27 25 24 26 25 23 23 23 23 25 26 25 26 25 24 23 23 22 23
28 26 32 31 33 32 31 31 32 34 34 33 30 28 27 27 27 27 28 26 25 25 26 26 24 25 25 25 24 24 23 22 22 22 24 25 24 24 23 23 20 21 21 20
29 33 28 32 30 30 29 31 31 32 33 32 30 28 27 27 28 28 26 25 24 24 24 23 22 21 22 22 23 23 20 19 18 19 21 21 19 20 20 20 20 19 18 18
29 31 30 31 31 31 31 30 30 31 33 32 31 28 27 27 27 25 25 24 23 23 22 21 20 20 19 17 16 14 13 13 14 13 14 17 18 18 17 19 18 19 19 19
29 30 31 29 31 31 30 30 29 29 30 31 29 28 27 26 26 24 23 23 22 21 19 19 18 18 19 18 16 15 14 14 15 14 15 14 14 16 15 15 15 15 16 16
31 31 31 32 30 29 28 28 28 28 28 28 28 27 26 25 24 24 23 22 21 19 18 17 17 19 21 23 23 21 22 21 19 18 19 19 18 17 17 17 13 13 13 13
31 30 29 29 28 28 27 27 27 26 27 27 26 25 24 23 23 21 20 19 18 17 17 16 17 19 19 17 17 20 19 17 17 18 18 17 16 15 15 14 13 13 11 10
29 28 28 28 27 26 26 25 25 25 25 25 25 24 23 21 20 20 19 15 15 15 16 15 15 19 18 18 19 19 17 18 19 19 17 15 14 13 12 12 11 10 8 6
28 28 28 27 26 25 25 25 24 25 25 26 25 24 23 21 20 19 16 15 15 16 17 18 19 21 20 19 19 18 18 17 15 15 14 13 12 10 9 9 9 9 6 4
27 26 26 25 25 25 24 24 24 24 24 24 23 22 21 18 16 15 16 18 21 21 21 20 19 20 21 20 18 17 17 14 12 12 11 10 9 8 7 8 7 6 7 4
27 28 27 26 25 25 24 24 24 24 23 23 24 24 22 20 19 18 19 20 19 19 21 20 20 20 20 19 16 14 14 12 10 10 8 10 6 5 7 5 3 4 5 5
27 27 27 25 25 25 25 25 26 26 27 25 23 22 22 21 20 18 19 18 17 17 18 19 18 18 17 16 12 12 12 11 8 5 5 5 8 5 7 7 5 5 4 4
28 28 26 26 26 27 27 30 29 26 25 25 23 22 20 19 17 18 19 18 19 18 19 18 16 14 13 12 11 10 12 12 5 8 9 7 9 8 6 0 3 5 6 5
30 30 28 28 28 29 29 28 27 25 25 23 22 21 19 18 17 18 18 16 18 19 17 15 12 11 8 7 7 14 12 12 11 9 9 8 7 5 5 5 5 5 4 4
30 28 27 27 27 27 28 28 27 25 24 23 23 20 18 17 17 16 16 14 16 17 15 14 11 10 8 8 8 13 10 8 8 7 7 7 6 6 5 3 3 3 3 3
29 28 27 26 26 28 27 26 25 24 23 21 20 19 19 17 15 14 13 13 15 16 14 15 11 9 8 14 13 11 8 7 6 5 5 5 5 4 3 2 3 2 1 0
29 28 28 28 26 25 24 24 24 23 23 22 21 21 20 18 17 13 16 15 15 16 16 12 9 7 9 12 10 9 7 7 5 4 1 -4 3 1 2 1 0 3 0 -2
28 27 27 26 25 25 24 22 21 21 21 20 20 20 17 17 21 19 18 17 14 14 14 6 5 5 10 10 8 6 6 6 5 4 3 3 2 1 2 0 -2 -0 -1 -2
26 26 26 25 25 24 22 21 21 21 21 21 21 22 23 23 20 18 17 14 13 11 10 7 7 8 8 6 5 4 4 -0 -0 1 -1 0 0 0 -1 -2 -2 -2 -2 -3
26 25 25 25 24 24 23 23 23 23 24 23 21 23 21 19 18 17 15 14 13 12 10 10 8 7 7 5 4 2 3 2 -2 -1 0 1 -0 1 -2 -2 -2 -2 -4 -5

GFSNGP_sfc_dewp_135.txt.gz
Dewpoint
17 15 16 16 14 14 14 17 20 22 24 25 26 26 29 36 37 35 34 33 31 31 30 28 27 23 22 23 23 23 24 26 28 28 27 27 27 28 28 27 26 25 25 25
17 13 13 13 11 12 13 15 15 16 17 18 20 27 30 31 35 34 33 31 30 29 28 25 22 21 22 24 25 26 26 27 28 27 27 28 28 28 28 27 27 27 26 26
21 20 19 17 17 15 14 15 16 22 19 19 20 35 36 33 34 34 32 30 28 28 28 26 24 23 24 25 25 26 26 26 27 27 27 27 27 27 28 28 27 26 27 27
22 21 18 17 14 15 20 19 20 18 18 22 26 34 32 32 33 33 32 30 29 31 29 28 26 25 26 26 27 27 27 26 26 25 26 26 26 27 29 31 28 27 25 25
22 19 16 15 20 30 29 22 24 22 22 23 31 32 32 32 33 35 36 34 34 34 31 31 28 28 27 27 26 25 25 26 25 26 25 25 25 26 28 29 29 27 26 24
24 18 17 26 17 17 26 26 25 24 25 28 31 31 36 33 34 34 33 32 32 32 30 28 30 27 26 25 24 24 24 26 27 26 25 25 26 26 29 31 27 28 27 25
25 24 21 19 19 24 23 24 29 28 27 33 32 34 35 35 33 32 31 30 29 31 29 30 30 27 25 24 23 25 25 25 26 26 26 28 28 30 29 28 30 27 26 25
26 26 22 24 27 25 31 32 30 31 33 33 33 32 31 31 29 29 29 29 27 28 28 30 32 28 25 24 25 24 24 24 25 26 27 28 27 30 29 28 25 24 24 24
23 25 33 34 33 34 31 31 31 33 34 35 31 31 30 29 29 29 28 27 28 28 27 27 25 25 25 26 24 24 23 23 24 25 25 26 24 25 23 25 23 23 22 21
27 29 28 32 33 32 31 32 32 34 35 34 31 31 29 29 29 29 28 29 28 27 27 24 22 21 23 23 23 22 20 19 19 20 21 22 19 19 19 20 20 20 19 18
30 27 31 32 34 35 34 35 32 33 35 33 32 30 29 29 28 26 26 26 25 25 24 20 20 19 18 17 16 14 14 13 14 15 16 17 18 18 16 18 16 17 18 20
31 32 35 33 33 36 35 32 31 32 34 34 30 30 28 30 29 27 26 24 23 24 22 19 19 18 17 16 15 13 13 14 15 15 16 16 17 17 15 14 13 13 14 15
33 33 35 34 31 32 32 32 30 30 30 31 30 29 28 28 28 26 24 23 22 22 20 18 18 21 23 25 26 24 23 22 20 20 20 20 19 19 20 16 14 12 11 11
34 32 31 31 31 30 30 29 29 28 28 29 28 27 26 25 25 23 22 22 21 19 17 16 17 18 18 18 19 21 19 18 19 19 19 17 17 16 16 15 15 13 11 8
32 31 30 31 29 28 27 27 27 26 27 27 26 26 25 23 22 22 22 20 19 17 16 17 17 19 18 18 19 20 18 19 20 20 18 16 15 14 14 13 13 12 8 7
30 29 29 29 27 27 26 26 26 26 26 28 29 26 25 23 22 22 19 17 16 16 16 21 21 22 22 21 20 19 19 17 17 16 15 14 13 11 11 10 11 10 7 4
29 28 28 27 26 26 26 26 25 26 25 25 25 25 23 22 21 19 17 18 24 23 22 22 21 22 22 21 18 18 18 15 13 13 11 11 11 10 9 10 9 8 9 6
29 29 29 28 27 26 26 25 25 25 25 25 27 28 26 25 24 22 24 24 23 22 22 22 21 21 21 20 17 15 15 13 11 11 10 12 8 8 9 8 6 7 8 7
28 27 28 27 27 26 25 26 28 28 29 29 27 25 24 24 23 23 22 21 21 20 20 21 20 19 17 16 13 13 13 11 8 6 7 8 11 8 10 10 9 9 8 7
28 28 27 27 27 28 29 32 32 30 29 27 26 25 25 24 23 21 21 20 20 20 20 19 16 14 13 13 11 11 13 13 7 11 12 10 13 13 9 4 7 9 9 8
33 32 32 31 31 32 32 31 30 27 27 26 25 24 22 22 22 22 22 20 22 20 18 17 14 12 9 9 8 16 15 14 14 12 13 11 10 10 10 10 9 9 9 8
31 30 30 31 30 30 31 31 30 28 27 26 27 24 22 21 22 22 22 20 18 19 16 14 12 11 10 10 10 16 13 11 11 11 12 12 11 10 9 9 9 9 8 8
30 29 28 28 27 27 28 29 29 27 26 26 23 22 22 20 20 19 16 17 18 17 15 16 14 12 11 16 16 14 13 11 11 11 11 10 10 10 9 8 8 7 7 5
29 29 29 29 28 26 25 25 26 27 27 26 25 24 23 22 22 20 19 18 18 19 20 16 13 11 13 16 15 14 12 12 10 10 8 4 8 6 7 5 5 6 4 2
29 28 27 27 26 26 25 25 24 24 24 23 23 24 23 23 23 22 21 21 18 17 17 11 10 10 15 15 13 11 11 11 10 9 8 7 6 5 6 4 2 4 3 2
28 27 27 27 27 26 25 24 24 23 23 24 24 25 26 25 25 22 22 19 17 17 14 11 11 12 13 12 11 9 10 8 5 7 6 5 5 4 3 2 2 1 2 2
29 29 28 28 28 26 26 25 26 25 25 25 23 25 25 25 23 21 18 17 17 16 14 14 12 11 12 10 9 8 8 7 5 4 5 5 4 4 2 2 3 3 2 0

GFSNGP_sfc_dewp_141.txt.gz
Dewpoint
18 14 12 12 12 14 14 16 18 17 19 23 21 20 23 31 41 43 43 40 38 38 37 35 28 25 25 28 27 27 28 27 27 27 28 28 28 27 27 25 24 24 23 21
21 19 17 16 15 14 14 13 11 9 11 17 22 31 33 34 42 42 40 37 37 37 33 27 24 25 27 28 28 28 26 24 24 26 26 25 25 25 25 25 23 22 22 21
21 23 24 20 19 19 19 20 19 19 18 22 22 31 35 36 39 41 39 38 38 33 29 26 26 27 28 28 27 26 25 25 23 22 22 18 24 24 20 19 20 21 18 19
25 22 15 18 23 23 21 18 19 19 21 22 26 34 35 36 38 42 39 35 30 27 27 28 28 28 28 27 26 25 23 23 25 21 17 21 16 13 14 15 13 13 17 17
19 17 18 19 21 22 21 18 21 21 24 29 34 34 33 33 33 35 33 30 28 28 27 27 28 28 27 26 25 24 19 17 15 15 14 15 13 13 14 19 18 19 13 14
18 15 8 16 21 23 26 19 28 29 34 34 34 26 32 33 32 31 30 30 29 28 27 28 28 27 25 23 22 19 19 19 20 18 16 15 15 18 18 18 20 21 19 17
18 18 19 20 23 24 20 19 32 32 32 33 30 31 33 31 31 31 30 29 29 27 27 27 27 25 23 22 19 19 24 24 23 26 25 20 20 20 21 21 23 20 18 16
22 22 20 30 29 25 30 35 34 32 32 32 33 31 31 30 30 30 29 29 28 28 27 28 26 25 23 21 22 24 23 24 24 23 27 26 24 22 24 23 19 18 17 15
25 23 29 33 30 33 37 35 34 33 34 33 31 30 30 28 29 29 29 28 28 27 28 28 26 24 21 22 24 25 25 24 22 26 24 21 20 18 19 19 18 16 14 12
29 30 31 34 36 37 35 35 36 35 33 33 31 30 29 28 28 29 28 28 27 27 28 27 26 24 23 24 24 24 23 24 22 21 21 19 17 17 16 15 14 16 12 10
27 29 34 36 37 38 39 37 35 34 32 30 31 30 29 28 28 28 28 28 27 27 27 27 25 24 24 23 22 21 20 19 19 19 17 17 17 15 15 11 13 11 8 8
24 35 34 35 36 35 37 35 35 33 32 32 30 29 29 28 28 29 31 28 27 27 27 25 22 22 22 22 21 18 17 18 19 18 17 16 15 16 16 15 14 13 13 12
31 36 35 35 34 35 35 34 34 33 32 31 30 29 29 28 30 31 28 26 26 28 24 22 22 23 23 22 21 19 18 21 21 22 20 18 16 15 14 15 13 12 12 13
31 33 30 31 30 33 33 32 33 33 33 31 30 30 30 30 29 27 26 27 26 24 22 22 21 22 23 23 21 20 21 22 22 20 19 20 20 17 15 13 12 9 11 11
31 34 33 33 31 30 31 30 30 30 31 30 31 30 30 28 26 26 27 26 25 21 21 20 20 21 22 21 21 21 22 20 19 17 19 19 19 18 18 16 10 7 8 9
34 33 30 30 30 29 29 29 28 29 29 30 30 29 28 26 26 25 26 25 22 19 19 20 21 20 21 22 22 21 21 20 19 19 19 17 17 16 15 13 9 5 4 3
30 29 29 29 29 28 28 28 28 29 30 29 28 27 26 25 25 26 24 23 22 21 21 20 19 21 21 21 21 20 20 19 18 18 17 16 16 14 13 12 8 5 2 -2
32 31 31 30 29 28 28 28 29 30 30 29 28 25 24 24 24 21 21 21 21 21 20 21 20 20 20 21 21 19 17 17 17 17 16 16 14 13 12 11 10 6 3 0
31 31 31 30 30 29 28 28 28 28 29 28 25 25 24 22 22 21 21 20 19 19 18 19 22 20 20 20 19 18 18 17 14 13 12 12 13 12 10 8 6 4 4 4
30 30 30 29 29 29 27 28 28 29 29 27 26 24 23 22 22 21 21 19 20 20 21 21 21 19 17 16 18 17 17 16 12 12 14 13 8 4 3 4 5 1 -2 -3
30 29 29 29 29 30 30 30 29 27 25 25 23 22 21 21 21 21 21 20 21 21 21 19 18 16 15 13 16 18 17 15 13 12 10 9 9 6 -0 -3 -0 -2 -7 -7
30 29 29 29 29 29 29 28 26 25 24 23 23 22 21 20 20 21 19 20 21 20 19 18 16 14 13 15 17 17 15 14 13 13 9 7 5 3 -1 -2 -4 -9 -10 -11
29 29 29 29 28 29 28 26 24 23 22 22 21 20 20 20 21 19 20 21 21 19 18 18 16 14 13 15 17 15 13 12 10 9 3 2 3 1 -1 -5 -8 -8 -11 -11
29 29 29 29 28 28 27 27 27 26 21 21 19 20 21 20 20 24 21 20 18 20 17 14 14 13 13 17 15 13 10 9 6 5 4 2 1 1 -3 -8 -9 -10 -15 -14
27 28 28 27 26 26 27 27 27 26 25 24 22 22 22 22 20 22 21 20 20 17 15 13 13 13 16 15 13 12 10 10 8 6 2 1 -5 -8 -7 -11 -14 -14 -15 -15
27 26 26 26 26 26 26 26 25 26 25 23 22 22 23 22 23 21 20 19 16 15 13 13 13 13 14 13 11 11 10 8 8 4 -0 -4 -5 -7 -8 -8 -15 -16 -17 -16
27 27 26 27 28 28 26 26 25 25 25 24 23 25 24 23 21 20 19 18 14 13 12 12 12 11 12 11 10 9 8 4 3 -1 -6 -5 -8 -11 -12 -10 -12 -15 -16 -15

GFSNGP_sfc_dewp_144.txt.gz
Dewpoint
18 16 16 19 19 17 14 20 21 19 17 16 17 20 23 29 37 43 41 38 37 37 36 36 33 30 27 28 29 28 27 27 27 28 27 27 26 26 24 23 23 22 21 22
22 22 20 18 17 17 17 18 18 15 16 19 20 26 35 40 43 43 43 39 37 37 36 34 26 26 27 28 27 28 26 25 25 26 25 24 24 24 23 21 20 20 20 21
21 24 24 19 19 19 18 21 22 21 20 20 22 35 35 36 41 42 42 39 37 37 35 28 26 28 28 28 27 26 25 25 22 21 21 18 24 23 18 15 16 17 12 14
26 25 18 22 22 22 24 24 24 21 21 22 26 34 34 34 35 40 39 38 38 34 28 28 28 28 28 27 26 25 23 23 24 21 18 21 16 13 10 8 6 4 8 11
22 20 20 18 21 22 20 18 22 23 30 33 34 33 31 33 33 34 32 30 28 27 28 29 28 28 27 25 24 23 20 19 20 21 18 19 12 15 12 12 12 7 4 9
21 15 8 15 18 22 26 17 25 29 33 33 33 24 27 32 32 28 27 27 28 29 28 28 28 27 26 24 22 21 22 22 23 20 18 16 14 12 18 18 14 12 14 13
17 17 19 22 22 21 17 16 30 31 33 34 29 30 32 31 30 28 28 28 28 28 27 27 27 25 23 23 21 23 24 24 25 25 23 20 18 14 22 21 18 9 10 10
20 18 17 29 28 25 29 33 32 32 32 33 33 32 31 30 30 29 28 27 26 26 26 25 25 24 23 22 24 25 24 24 25 25 26 23 18 19 17 16 14 8 7 11
24 22 29 33 32 35 35 33 34 34 34 34 32 30 30 29 29 30 29 27 26 26 25 25 24 23 21 23 25 25 25 24 24 23 22 21 16 12 17 17 14 12 11 7
25 27 29 32 33 36 35 34 35 34 32 33 31 30 30 29 29 29 28 28 27 27 26 25 24 22 22 24 25 25 24 24 21 19 18 17 17 16 15 14 13 13 12 9
25 27 32 36 35 38 37 36 35 33 31 31 31 30 29 29 29 29 28 28 27 27 26 26 25 21 23 23 23 23 23 21 21 17 16 16 14 13 13 8 12 10 6 7
21 28 31 32 36 39 35 36 35 32 28 28 31 29 29 29 29 29 28 27 26 26 27 26 25 22 23 23 22 22 20 19 18 16 16 15 15 15 16 15 15 15 14 14
25 30 33 36 38 35 34 35 34 32 30 28 30 30 29 28 29 29 29 27 26 26 27 26 24 24 24 25 24 21 20 20 18 18 17 15 15 15 14 15 14 14 15 14
29 31 32 33 31 34 33 34 35 33 32 30 30 29 28 28 30 29 28 26 27 27 23 22 22 23 23 23 21 20 21 21 20 19 18 16 15 15 15 12 8 9 13 14
26 28 28 32 32 33 32 32 31 30 29 30 30 29 29 29 28 28 27 26 27 22 21 21 21 22 22 21 21 22 22 19 19 19 20 20 19 17 16 14 9 8 9 9
28 31 32 31 30 30 30 30 28 28 29 30 30 30 29 28 27 27 28 26 23 21 21 21 21 21 22 22 22 22 21 18 18 19 19 18 19 18 16 10 7 7 5 4
28 28 28 29 28 28 29 29 29 28 29 30 30 29 28 27 26 27 28 27 22 21 21 21 20 21 21 22 22 21 21 19 18 18 16 16 16 15 13 10 6 6 4 1
28 32 31 30 29 28 28 29 29 30 29 30 29 27 25 26 25 22 21 21 21 20 19 20 20 21 20 20 20 19 20 19 18 17 17 16 14 13 13 9 7 6 6 1
32 31 31 30 29 28 28 28 29 28 26 25 23 21 21 22 21 20 20 19 18 18 17 19 22 20 20 21 19 18 17 18 16 14 14 15 14 12 12 10 8 6 6 4
30 30 30 29 29 29 28 26 25 24 26 24 20 19 19 19 19 19 19 18 19 19 20 21 21 19 18 21 19 17 17 16 14 13 14 12 10 9 10 8 7 4 2 -1
29 29 28 29 29 29 29 28 28 28 26 22 21 18 18 18 19 19 18 19 19 21 21 20 19 17 15 16 16 18 17 16 15 14 13 10 6 6 7 7 4 0 -5 -6
29 29 29 29 29 28 29 29 27 25 20 16 18 19 19 19 19 18 17 20 21 20 20 20 17 15 14 16 17 16 15 15 14 13 11 11 8 4 -1 -2 -2 -5 -6 -8
28 28 28 28 28 28 27 26 24 21 19 18 18 18 19 20 21 20 19 21 21 19 19 18 16 14 14 17 17 16 15 13 12 12 9 8 7 6 4 2 -0 -4 -7 -6
25 28 28 28 28 27 26 25 24 22 17 18 16 17 20 20 16 21 21 19 18 19 18 16 16 14 13 15 15 14 14 13 11 9 8 7 6 4 1 0 -2 -5 -10 -12
28 28 28 28 27 26 27 27 26 25 24 23 21 20 21 21 17 18 19 18 18 16 15 14 15 13 15 15 14 13 12 10 9 8 7 4 3 3 -1 -4 -5 -10 -14 -15
27 28 28 28 27 27 27 26 25 25 24 20 17 18 14 17 18 18 17 16 17 14 14 13 13 14 15 14 14 13 11 9 8 6 5 5 1 -0 -5 -12 -13 -13 -14 -16
27 27 26 26 27 27 26 26 25 25 25 23 20 18 21 20 19 18 17 14 14 14 14 13 12 13 14 14 12 12 10 9 8 7 4 2 -1 -2 -5 -8 -11 -14 -18 -20